Regional Weather Roundup
Issued by NWS

Home | Current Version | Previous Version | Graphics & Text | Print | Product List | Glossary On
Versions: 1 2 3 4 5 6 7 8 9 10 11 12 13 14 15 16 17 18 19 20 21 22 23 24 25 26 27 28 29 30 31 32 33 34 35 36 37 38 39 40 41 42 43 44 45 46 47 48 49 50
000
ASUS45 KCYS 211210
RWRWY

WYOMING REGIONAL WEATHER ROUNDUP
NATIONAL WEATHER SERVICE CHEYENNE WY
600 AM MDT TUE OCT 21 2014

NOTE:  "FAIR" INDICATES FEW OR NO CLOUDS BELOW 12,000 FEET
WITH NO SIGNIFICANT WEATHER AND/OR OBSTRUCTIONS TO VISIBILITY.

WYZ001-211300-
YELLOWSTONE NATIONAL PARK

CITY           SKY/WX    TMP DP  RH WIND       PRES   REMARKS
LK YELLOWSTONE   N/A     28  26  92 CALM      30.00F
6HR MIN TEMP:  28; 6HR MAX TEMP:  32;

W YELLOWSTONE  NOT AVBL

$$
WYZ002>013-054>058-071-098>099-211300-
NORTHERN WYOMING

CITY           SKY/WX    TMP DP  RH WIND       PRES   REMARKS
JACKSON        CLOUDY    37  34  87 E5        29.99S WCI  34
CODY           CLEAR    N/A N/A N/A S5        29.84S
GREYBULL       CLEAR     38  26  62 CALM      29.82S
6HR MIN TEMP:  37; 6HR MAX TEMP:  47;

WORLAND        CLEAR     37  28  70 CALM      29.82F
6HR MIN TEMP:  36; 6HR MAX TEMP:  49; 6HR PCP: TRACE;

SHERIDAN       CLEAR     39  29  67 CALM      29.79S
6HR MIN TEMP:  37; 6HR MAX TEMP:  46;

BUFFALO        CLEAR     53  28  38 W6        29.85S
6HR MIN TEMP:  48; 6HR MAX TEMP:  59;

GILLETTE       CLEAR     60  34  37 SW21G28   29.82F
6HR MIN TEMP:  56; 6HR MAX TEMP:  62;

HULETT         FAIR      63  34  34 SW17G23   29.84
NEWCASTLE      FAIR      50  34  53 CALM      29.91

$$
WYZ014>020-022>026-101>103-211300-
CENTRAL WYOMING

CITY           SKY/WX    TMP DP  RH WIND       PRES   REMARKS
BIG PINEY      PTCLDY    30  25  81 N5        30.05R WCI  25
6HR MIN TEMP:  28; 6HR MAX TEMP:  35;

PINEDALE       MOSUNNY   30  28  93 CALM      30.05S
DUBOIS         FAIR      37  28  70 NW7       29.99R WCI  32
LANDER         CLEAR     46  31  55 CALM      29.92R
6HR MIN TEMP:  44; 6HR MAX TEMP:  58;

RIVERTON       CLEAR     39  31  72 NW9       29.93R WCI  33
6HR MIN TEMP:  37; 6HR MAX TEMP:  52;

CASPER         CLEAR     54  36  50 SW16      29.95F
6HR MIN TEMP:  47; 6HR MAX TEMP:  55;

DOUGLAS        PTCLDY    44  36  73 SE6       29.97S
6HR MIN TEMP:  42; 6HR MAX TEMP:  51;


$$
WYZ021-027>030-104>119-211300-
SOUTHERN WYOMING

CITY           SKY/WX    TMP DP  RH WIND       PRES   REMARKS
EVANSTON       PTCLDY    50  36  58 S6        30.03S
6HR MIN TEMP:  47; 6HR MAX TEMP:  51;

KEMMERER       PTSUNNY   43  32  65 CALM      30.03F
FORT BRIDGER   FAIR      48  37  65 SE6       30.06S
ROCK SPRINGS   CLOUDY    50  35  56 SE3       30.03S
6HR MIN TEMP:  47; 6HR MAX TEMP:  54;

DIXON          PTSUNNY   44  36  74 NE5       30.11
RAWLINS        CLEAR     41  32  70 CALM      30.07F
6HR MIN TEMP:  38; 6HR MAX TEMP:  52;

SARATOGA       CLOUDY    45  34  65 SE9       30.10F
LARAMIE        PTCLDY    36  30  79 S8        30.12S WCI  30
6HR MIN TEMP:  35; 6HR MAX TEMP:  42;

CHEYENNE       CLEAR     47  34  60 W12       30.05S
6HR MIN TEMP:  40; 6HR MAX TEMP:  49;

TORRINGTON     CLEAR     42  35  76 CALM      29.95F
6HR MIN TEMP:  41; 6HR MAX TEMP:  56;

PINE BLUFFS    FAIR      36  32  87 CALM      30.02S

$$



USA.gov is the U.S. government's official web portal to all federal, state and local government web resources and services.